Flag for Brazil Weather past 2 weeks in Uberaba, Minas Gerais, Brazil

Now
81 °F

Partly sunny.


Feels Like: 83 °F
Forecast: 68 / 83 °F
Wind: 8 mph from East

Location: Leite Lopes / Ribeir

Current Time: Dec 20, 2014 at 10:42:16 AM

Latest Report: Dec 20, 2014 at 10:00 AM


Visibility: N/A

Pressure: 29.95 "Hg

Humidity: 66%

Dew point: 68 °F

Location of UberabaLocation

Historic Weather in Uberaba — Graph

°F

Uberaba temperature yesterday

Maximum temperature yesterday: 91 °F (at 3:00 PM)
Minimum temperature yesterday: 72 °F (at 2:00 AM)
Average temperature yesterday: 80 °F

Past Weeks' High & Low Weather Summary

 TemperatureHumidityPressure
High95 °F (Dec 17, 5:00 PM)100% (Dec 5, 7:00 PM)30.04 "Hg (Dec 5, 7:00 PM)
Low36 °F (Dec 5, 7:00 PM)30% (Dec 17, 5:00 PM)29.74 "Hg (Dec 19, 5:00 PM)
Average76 °F69%29.92 "Hg
* Reported Dec 5 9:00 AM — Dec 20 9:00 AM, Uberaba, Weather by CustomWeather, © 2014

Note: Actual official high and low records may vary slightly from our data, if they occured in-between our weather recording intervals... More about our weather records

Advertising

Uberaba weather history for previous 24 hours

 ConditionsComfort  
Time TempWeatherWind HumidityBarometerVisibility
9:00 AM
Dec 20
75 °FSunny.8 mph78%29.92 "Hg10 mi
8:00 AM73 °FSunny.7 mph83%29.92 "Hg10 mi
7:00 AM73 °FSunny.6 mph83%29.89 "Hg10 mi
6:00 AM73 °FClear.7 mph83%29.86 "Hg10 mi
5:00 AM73 °FClear.3 mph83%29.86 "Hg10 mi
4:00 AM73 °FClear.7 mph78%29.86 "Hg10 mi
3:00 AM75 °FClear.2 mph74%29.83 "Hg10 mi
2:00 AM75 °FClear.3 mph74%29.86 "Hg10 mi
1:00 AM75 °FClear.5 mph69%29.89 "Hg10 mi
12:00 AM77 °FClear.5 mph65%29.89 "Hg10 mi
11:00 PM
Dec 19
79 °FClear.8 mph61%29.86 "Hg10 mi
10:00 PM77 °FPassing clouds.6 mph74%29.83 "HgN/A
9:00 PM81 °FPassing clouds.8 mph62%29.83 "HgN/A
8:00 PM81 °FScattered showers. Passing clouds.7 mph66%29.77 "HgN/A
7:00 PM90 °FPassing clouds.9 mph38%29.77 "HgN/A
6:00 PM90 °FScattered clouds.12 mph38%29.74 "HgN/A
5:00 PM91 °FScattered clouds.9 mph36%29.74 "HgN/A
4:00 PM91 °FScattered clouds.9 mph38%29.77 "HgN/A
3:00 PM91 °FScattered clouds.10 mph38%29.80 "HgN/A
2:00 PM90 °FScattered clouds.7 mph41%29.83 "HgN/A
1:00 PM88 °FPartly sunny.7 mph46%29.86 "HgN/A
12:00 PM84 °FBroken clouds.6 mph55%29.89 "HgN/A
11:00 AM81 °FPartly sunny.7 mph62%29.89 "HgN/A
10:00 AM81 °FPartly sunny.6 mph62%29.89 "HgN/A
Weather by CustomWeather, © 2014

See weather overviewHow to use our weather pages